国际通讯卫星 709星 (INTELSAT 709 (IS-709))

导读

INTELSAT 709是国际通信卫星组织(ITSO)旗下Intelsat 7系列通信卫星,由美国Space Systems/Loral公司建造,基于SSL-1300平台研制,于1996年6月15日发射升空,是该系列最后一颗卫星。卫星发射总质量约3695千克,设计寿命末期功率达3600瓦,搭载C波段与Ku波段通信载荷,可为全球提供语音、视频和数据传输服务,支撑跨区域骨干通信网络运行。

Basic Information
目录编号:
23915
目录名称:
INTELSAT 709
国际标识:
1996-035A
轨道中心:
EARTH
卫星名称:
国际通讯卫星 709星
卫星全名:
国际通讯卫星 709星 (INTELSAT 709 (IS-709))
卫星状态:
在轨 (已飞行11049 天)
发射日期:
1996-06-15 UTC
国别 :
(ITSO)
星等 :
--
This satellite is enrolled in the Space Conjunction Data Service (SCDS) and the current flight risk assessment level is: No High Risk
Orbit Information
数据来源 国际轨道数据 AOE轨道数据
星历时间 2026-09-15T16:18:43+0800
14小时前
查看轨道信息
2026-09-12T14:00:00+0800
3天前
查看轨道信息
半长轴 42473.575km 42473.147km
偏心率 0.0019344 0.0019088
轨道倾角 10.924° 10.918°
近地点辐角 227.436° 227.400°
升交点赤经 46.781° 46.810°
平近点角 139.930° 114.376°
近地点 36013.277km 36013.937km
远地点 36177.599km 36176.083km
周期 1451.904分钟 1451.882分钟
每日圈数 0.991801 0.991816
Detailed Information
卫星平台:
SSL-1300
平衡模式:
三轴稳定
覆盖范围:
全球
运营商:
国际卫星通信公司
运营商所在国:
美国
制造商(研发单位):
劳拉空间系统公司
制造商所在国:
美国
使用方式:
暂无
Satellite Introduction
从1965年4月至1984年3月,国际通信卫星组织发射了5代、6种不同性能的卫星共计35颗,除6颗卫星因运载火箭和远地点发动机故障而发射失败外,其余29颗卫星均被送到了预定的静止轨道位置。1984年8月前后,国际通信卫星组织利用部署在大西洋、太平洋、印度洋上空的15颗国际通信卫星,为遍布世界各地170多个国家或地区提供电话、电传、电报、电视和数据传输等电信业务;该卫星已退役。
2D Orbit Map
3D Orbit Map
Orbit Altitude Analysis Chart
Orbit Inclination Analysis Chart
Orbit Comprehensive Analysis Chart
View Comprehensive Chart
Miss Distance Evolution Trend with All Objects Subscribe to Flight Safety Assessment
Collision Probability Evolution Trend with All Objects Subscribe to Flight Safety Assessment